Location: Madrid
(40.4000°N, 3.6830°W)
Time: 18:23:48
(UTC+01:00)

ISS - Pass Details

Date: 21 January 2020
Orbit: 415 x 422 km, 51.6° (Epoch: 23 January)

Event Time Altitude Azimuth Distance (km) Brightness Sun altitude
Rises 19:05:59 0° 212° (SSW) 2,356 0.9 -9.1°
Reaches altitude 10° 19:08:11 10° 203° (SSW) 1,495 -0.3 -9.5°
Maximum altitude 19:11:16 34° 136° (SE) 705 -2.8 -10.1°
Enters shadow 19:13:31 16° 76° (ENE) 1,194 -2.1 -10.5°
